Location: Bastogne Gables
(35.1554°N, 78.9900°W)
Time: 03:45:51
(UTC+00:00)

Cosmos 1825 - Pass Details

Date: 29 October 2020
Orbit: 502 x 508 km, 82.5° (Epoch: 26 November)

Event Time Altitude Azimuth Distance (km) Brightness Sun altitude
Rises 23:32:24 0° 5° (N) 2,614 5.7 -14.5°
Reaches altitude 10° 23:34:44 10° 17° (NNE) 1,724 4.6 -15.0°
Enters shadow 23:36:54 24° 47° (NE) 1,084 3.4 -15.5°
